[Iaude] MPEC X186: 2023 XD6 [a=2.57,e=0.52,i=6.7,H=20.5]

mpec at marsden.cfa.harvard.edu mpec at marsden.cfa.harvard.edu
Sun Dec 10 19:56:00 EST 2023


M.P.E.C. 2023-X186                            Issued 2023 December 11, 00:54 UT

     The Minor Planet Electronic Circulars contain information on unusual
         minor planets, routine data on comets and natural satellites,
         and occasional editorial announcements.  They are published
    on behalf of Division F of the International Astronomical Union by the
          Minor Planet Center, Smithsonian Astrophysical Observatory,
                          Cambridge, MA 02138, U.S.A.
			  
             Prepared using the Tamkin Foundation Computer Network

                              MPC at CFA.HARVARD.EDU
            URL https://www.minorplanetcenter.net/    ISSN 1523-6714

                                    2023 XD6                                    


Observations:
     K23X06D* C2023 12 04.32723105 03 47.192+19 17 42.13         22.09wXEX186F51
     K23X06D  C2023 12 04.34145105 03 45.957+19 17 36.12         21.66wXEX186F51
     K23X06D  C2023 12 04.35560205 03 44.738+19 17 30.23         21.93wXEX186F51
     K23X06D  C2023 12 04.37106905 03 43.414+19 17 23.58         22.02wXEX186F51
     K23X06D 1C2023 12 04.39879 05 03 40.50 +19 17 08.8                VEX186G96
     K23X06D 1C2023 12 04.40393 05 03 40.02 +19 17 07.7                VEX186G96
     K23X06D 1C2023 12 04.40906 05 03 39.65 +19 17 05.5          21.3 GVEX186G96
     K23X06D  C2023 12 05.46481 05 02 12.84 +19 09 33.6          21.4 GVEX186I52
     K23X06D  C2023 12 05.48105 05 02 11.51 +19 09 25.5          21.7 GVEX186I52
     K23X06D  C2023 12 07.34094704 59 42.609+18 56 33.15         21.95wXEX186F52
     K23X06D  C2023 12 07.35322904 59 41.566+18 56 28.31         21.98wXEX186F52
     K23X06D  C2023 12 07.37807304 59 39.498+18 56 18.61         21.64wXEX186F52
     K23X06D  C2023 12 10.32204604 55 51.237+18 36 48.38         21.92wXEX186F52
     K23X06D  C2023 12 10.33430604 55 50.274+18 36 43.90         21.70wXEX186F52
     K23X06D  C2023 12 10.34657204 55 49.304+18 36 39.31         21.71wXEX186F52
     K23X06D  C2023 12 10.35895604 55 48.322+18 36 34.81         22.06wXEX186F52

Observer details:
F51 Pan-STARRS 1, Haleakala.  Observers J. Herman, T. Lowe, P. Minguez, A.
    Schultz, I. Smith.  Measurers K. Chambers, T. de Boer, J. Fairlamb, H.
    Gao, M. Huber, C.-C. Lin, E. Magnier, Y. Ramanjooloo, R. Wainscoat, R.
    Weryk.  1.8-m Ritchey-Chretien + CCD.
F52 Pan-STARRS 2, Haleakala.  Observers J. Herman, T. Lowe, P. Minguez, A.
    Schultz, I. Smith.  Measurers K. Chambers, T. de Boer, J. Fairlamb, H.
    Gao, M. Huber, C.-C. Lin, E. Magnier, Y. Ramanjooloo, R. Wainscoat, R.
    Weryk.  1.8-m Ritchey-Chretien + CCD.
G96 Mt. Lemmon Survey.  Observer J. K. Hogan.  Measurers B. Gray, D. Rankin,
    F. C. Shelly.  1.5-m reflector + 10K CCD.
I52 Steward Observatory, Mt. Lemmon Station.  Observer G. J. Leonard.
    Measurers B. Gray, D. Rankin, F. C. Shelly.  1.0-m f/2.0 prime focus +
    CCD.

Orbital elements:
2023 XD6                                                 Earth MOID = 0.2541 AU
Epoch 2023 Sept. 13.0 TT = JDT 2460200.5                Bell                    
M  11.72160              (2000.0)            P               Q                  
n   0.23966406     Peri.  106.68829     +0.96764773     +0.23119576             
a   2.5668517      Node   240.04416     -0.25199604     +0.90541548             
e   0.5212886      Incl.    6.69613     +0.01248438     +0.35604961             
P   4.11           H   20.54          G   0.15           U   9                  
Residuals in seconds of arc
231204 F51  0.2+  0.0     231204 G96  0.3+  0.5+    231210 F52  0.1-  0.2-
231204 F51  0.0   0.0     231205 I52 (0.6-  1.0+)   231210 F52  0.0   0.1-
231204 F51  0.0   0.0     231205 I52  0.2-  0.0     231210 F52  0.0   0.1-
231204 F51  0.1+  0.1-    231207 F52  0.2+  0.0     231210 F52  0.0   0.1+
231204 G96  0.1-  0.7-    231207 F52  0.1-  0.1+
231204 G96  0.7-  0.4+    231207 F52  0.0   0.4+

Ephemeris:
2023 XD6                 a,e,i = 2.57, 0.52, 7                   q = 1.2288
Date    TT    R. A. (2000) Decl.     Delta      r    Elong.  Phase     V
2023 11 11    05 34 34.4 +22 22 44   0.7680  1.6730   143.9    20.4    22.1
...
2023 11 26    05 15 29.1 +20 20 58   0.8016  1.7700   163.3     9.2    21.9
...
2023 12 04    05 04 13.8 +19 20 05   0.8396  1.8223   173.4     3.6    21.8
...
2023 12 10    04 56 15.3 +18 38 54   0.8782  1.8616   175.4     2.5    21.9
2023 12 11    04 55 00.1 +18 32 31   0.8855  1.8682   174.5     2.9    21.9
2023 12 12    04 53 46.4 +18 26 18   0.8931  1.8747   173.5     3.4    22.0
...
2023 12 18    04 47 02.4 +17 52 25   0.9435  1.9141   166.4     6.9    22.3
...
2023 12 26    04 40 03.1 +17 17 17   1.0239  1.9664   156.8    11.4    22.8
...
2024 01 10    04 33 38.2 +16 42 19   1.2105  2.0638   140.1    17.8    23.5

M. P. C. Staff               (C) Copyright 2023 MPC           M.P.E.C. 2023-X186





More information about the Iaude mailing list